Date String (YYYY-MM-DD hh:mm:ss) UTC,Instrument flags,Ambient pressure (hPa),Sample flow (lpm),Bypass flow (lpm),Sample temperature (°C),Ambient temperature (°C),ASC tube jacket temperature (°C),LED temperature (°C),Box temperature (°C),Sample RH (%),Span deviation,Mass concentration (μg/m³),Mass concentration (μg/m³),Mass concentration (μg/m³)
DateTimeUTC,F1_M11,P_M11,Q1_M11,Q2_M11,T1_M11,T2_M11,T3_M11,T4_M11,T5_M11,U1_M11,ZSPAN_M11,X0_M11,X2_M11,X1_M11
2022-04-17 04:00:00,,0819.8,5.00,0.00,28.0,27.1,00.0,36.9,29.8,09.9,0001.0,0025.83,0009.64,0007.45
2022-04-17 04:01:00,,0819.8,4.99,0.00,28.0,27.1,00.0,36.9,29.8,09.9,0001.6,0024.72,0009.62,0007.42
2022-04-17 04:02:00,,0819.8,5.01,0.00,28.0,27.1,00.0,36.9,29.8,09.9,0003.8,0024.41,0009.57,0007.38
2022-04-17 04:03:00,,0819.7,5.00,0.00,28.0,27.1,00.0,36.9,29.8,09.8,0004.1,0024.43,0009.64,0007.34
2022-04-17 04:04:00,,0819.7,4.99,0.00,28.0,27.2,00.0,36.9,29.8,09.8,0004.2,0024.27,0009.57,0007.27
2022-04-17 04:05:00,,0819.8,5.00,0.00,28.0,27.2,00.0,36.9,29.8,09.7,0006.6,0024.50,0009.52,0007.24
2022-04-17 04:06:00,,0819.8,4.99,0.00,28.0,27.2,00.0,36.9,29.8,09.7,0006.5,0024.55,0009.51,0007.22
2022-04-17 04:07:00,,0819.7,4.99,0.00,28.1,27.2,00.0,36.9,29.9,09.7,0007.4,0025.50,0009.44,0007.20
2022-04-17 04:08:00,,0819.7,5.02,0.00,28.1,27.2,00.0,36.9,29.9,09.6,0007.0,0024.99,0009.34,0007.17
2022-04-17 04:09:00,,0819.7,5.00,0.00,28.1,27.2,00.0,37.0,29.9,09.6,0007.0,0025.61,0009.26,0007.14
2022-04-17 04:10:00,,0819.8,4.99,0.00,28.1,27.2,00.0,37.0,29.9,09.6,0007.1,0027.03,0009.22,0007.09
2022-04-17 04:11:00,,0819.8,4.99,0.00,28.1,27.2,00.0,37.0,29.9,09.5,0005.5,0028.35,0009.18,0007.05
2022-04-17 04:12:00,,0819.8,5.01,0.00,28.1,27.1,00.0,37.0,29.9,09.6,0006.3,0028.97,0009.13,0007.01
2022-04-17 04:13:00,,0819.8,5.00,0.00,28.1,27.1,00.0,37.0,29.8,10.4,0003.6,0029.89,0009.10,0006.97
2022-04-17 04:14:00,,0819.8,4.99,0.00,28.0,27.1,00.0,36.9,29.8,10.4,0003.6,0030.10,0008.99,0006.94
2022-04-17 04:15:00,,0819.9,5.01,0.00,28.0,27.1,00.0,36.9,29.8,10.5,0003.5,0030.17,0008.98,0006.92
2022-04-17 04:16:00,,0819.9,4.99,0.00,28.0,27.1,00.0,36.9,29.8,10.5,0002.4,0029.43,0008.92,0006.89
2022-04-17 04:17:00,,0819.9,4.99,0.00,28.0,27.1,00.0,36.9,29.8,10.5,0001.4,0029.60,0008.89,0006.85
2022-04-17 04:18:00,,0819.9,5.01,0.00,28.0,27.1,00.0,36.9,29.8,10.5,0000.9,0029.74,0008.94,0006.81
2022-04-17 04:19:00,,0819.9,5.00,0.00,28.0,27.1,00.0,36.9,29.8,10.3,0000.4,0032.73,0009.02,0006.77
2022-04-17 04:20:00,,0819.9,5.00,0.00,28.0,27.1,00.0,36.9,29.8,10.4,0001.4,0032.17,0009.08,0006.71
2022-04-17 04:21:00,,0819.9,4.99,0.00,28.0,27.1,00.0,36.9,29.8,10.4,0000.6,0031.22,0009.09,0006.66
2022-04-17 04:22:00,,0819.9,5.01,0.00,28.0,27.1,00.0,36.9,29.8,10.4,0000.0,0030.64,0009.12,0006.60
2022-04-17 04:23:00,,0820.0,5.01,0.00,28.0,27.1,00.0,36.9,29.8,10.4,0000.1,0030.15,0009.07,0006.52
2022-04-17 04:24:00,,0819.9,5.01,0.00,28.0,27.1,00.0,36.9,29.8,10.5,0000.6,0029.71,0009.09,0006.45
2022-04-17 04:25:00,,0819.9,4.99,0.00,28.0,27.1,00.0,36.9,29.8,10.5,-000.1,0030.74,0009.16,0006.37
2022-04-17 04:26:00,,0819.9,4.99,0.00,28.0,27.1,00.0,36.9,29.8,10.5,0000.0,0031.79,0009.23,0006.30
2022-04-17 04:27:00,,0819.9,4.99,0.00,28.0,27.1,00.0,36.9,29.8,10.3,-000.2,0032.30,0009.26,0006.19
2022-04-17 04:28:00,,0819.9,5.01,0.00,28.0,27.1,00.0,36.9,29.8,10.3,-000.0,0032.34,0009.21,0006.07
2022-04-17 04:29:00,,0819.9,5.01,0.00,28.0,27.1,00.0,36.9,29.8,10.3,-000.1,0033.10,0009.15,0005.97
2022-04-17 04:30:00,,0819.9,4.99,0.00,28.0,27.1,00.0,36.9,29.8,10.1,-000.5,0032.63,0009.18,0005.86
2022-04-17 04:31:00,,0819.9,5.00,0.00,28.0,27.1,00.0,36.9,29.8,10.2,-000.1,0033.30,0009.23,0005.73
2022-04-17 04:32:00,,0819.9,5.01,0.00,28.0,27.1,00.0,36.9,29.8,10.2,0000.9,0034.51,0009.19,0005.58
2022-04-17 04:33:00,,0819.9,5.00,0.00,28.0,27.1,00.0,36.9,29.8,10.1,0002.4,0035.74,0009.28,0005.45
2022-04-17 04:34:00,,0819.9,5.00,0.00,28.0,27.0,00.0,36.9,29.8,10.1,0002.6,0036.89,0009.38,0005.34
2022-04-17 04:35:00,,0819.9,4.99,0.00,28.0,27.0,00.0,36.9,29.8,10.1,0002.6,0038.40,0009.39,0005.21
2022-04-17 04:36:00,,0820.0,4.99,0.00,28.0,27.0,00.0,36.9,29.8,10.2,0001.8,0040.05,0009.47,0005.08
2022-04-17 04:37:00,,0820.0,5.01,0.00,28.0,27.0,00.0,36.9,29.8,10.2,0002.4,0040.88,0009.45,0004.96
2022-04-17 04:38:00,,0820.0,5.01,0.00,28.0,27.0,00.0,36.9,29.8,10.2,0003.1,0042.84,0009.51,0004.86
2022-04-17 04:39:00,,0820.0,4.99,0.00,28.0,27.0,00.0,36.9,29.8,10.3,0002.7,0042.04,0009.49,0004.78
2022-04-17 04:40:00,,0820.0,5.00,0.00,28.0,27.0,00.0,36.9,29.8,10.2,0003.2,0042.47,0009.49,0004.69
2022-04-17 04:41:00,,0819.9,5.01,0.00,27.9,27.0,00.0,36.9,29.8,10.2,0002.9,0041.89,0009.39,0004.62
2022-04-17 04:42:00,,0819.9,5.00,0.00,27.9,27.0,00.0,36.9,29.8,10.2,0003.0,0043.20,0009.31,0004.57
2022-04-17 04:43:00,,0819.9,4.99,0.00,28.0,27.0,00.0,36.9,29.7,10.1,0002.5,0043.20,0009.31,0004.52
2022-04-17 04:44:00,,0819.9,5.00,0.00,27.9,27.0,00.0,36.9,29.7,10.0,0002.2,0042.04,0009.22,0004.48
2022-04-17 04:45:00,,0820.0,4.99,0.00,27.9,26.9,00.0,36.9,29.7,10.0,0002.2,0041.73,0009.06,0004.40
2022-04-17 04:46:00,,0820.0,5.01,0.00,27.9,27.0,00.0,36.9,29.7,10.0,0002.5,0040.91,0009.00,0004.35
2022-04-17 04:47:00,,0820.2,5.01,0.00,27.9,27.0,00.0,36.9,29.7,10.0,0002.7,0039.02,0008.86,0004.29
2022-04-17 04:48:00,,0820.3,4.99,0.00,27.9,26.9,00.0,36.8,29.7,09.9,0001.2,0037.38,0008.71,0004.22
2022-04-17 04:49:00,,0820.3,5.00,0.00,27.9,26.9,00.0,36.8,29.7,09.9,0000.0,0036.77,0008.55,0004.15
2022-04-17 04:50:00,,0820.4,5.01,0.00,27.9,26.9,00.0,36.8,29.7,09.9,0000.0,0036.52,0008.45,0004.08
2022-04-17 04:51:00,,0820.5,5.00,0.00,27.9,26.9,00.0,36.8,29.7,09.9,0000.0,0035.69,0008.40,0004.01
2022-04-17 04:52:00,,0820.5,4.99,0.00,27.9,26.9,00.0,36.8,29.6,09.9,0000.0,0036.51,0008.30,0003.96
2022-04-17 04:53:00,,0820.5,5.00,0.00,27.9,26.9,00.0,36.8,29.6,09.9,0000.0,0036.23,0008.22,0003.93
2022-04-17 04:54:00,,0820.6,4.99,0.00,27.8,26.9,00.0,36.8,29.6,09.9,0000.0,0037.07,0008.14,0003.90
2022-04-17 04:55:00,,0820.6,5.01,0.00,27.8,26.8,00.0,36.8,29.6,09.9,0000.0,0037.50,0008.05,0003.86
2022-04-17 04:56:00,,0820.6,5.00,0.00,27.8,26.8,00.0,36.8,29.6,09.9,0000.0,0037.49,0008.04,0003.84
2022-04-17 04:57:00,,0820.6,5.00,0.00,27.8,26.8,00.0,36.8,29.6,09.9,0000.0,0037.62,0007.98,0003.81
2022-04-17 04:58:00,,0820.6,4.99,0.00,27.8,26.8,00.0,36.8,29.6,09.8,0000.0,0038.53,0007.86,0003.78
2022-04-17 04:59:00,,0820.6,5.00,0.00,27.8,26.8,00.0,36.8,29.6,09.7,0000.0,0040.22,0007.81,0003.74
